[[{"header":{"parameterUnit":"m.s-1","parameterCategory":1,"la1":30.2991,"la2":30.254,"lo1":-89.0895,"lo2":-89.0444,"dy":0.0017,"dx":0.0017,"nx":28,"ny":28,"refTime":"2025-12-27T09:00:00:Z","depth":0,"parameterNumber":2,"parameterNumberName":"U-component_of_WINDS"},"data":[0,0,0,0,0,0,0,0,0,0,0,0,0,0,0,0,0,0,0,0,0,0,0,0,0,0,0,0,0,0,0,0,0,0,0,0,0,0,0,0,0,0,0,0,0,0,0,0,0,0,0,0,0,0,0,0,0,0,-0.499,-0.4989,0,-0.4919,-0.4918,-0.4917,-0.4887,-0.4887,-0.4887,-0.4887,-0.4812,-0.481,-0.4808,0,0,0,0,0,0,0,0,0,0,0,0,0,-0.5098,-0.5096,-0.499,-0.4989,-0.4989,-0.4919,-0.4918,-0.4917,-0.4887,-0.4887,-0.4887,-0.4887,-0.4813,-0.4811,-0.4808,0,0,0,0,0,0,0,0,0,0,0,0,0,-0.5041,-0.5095,-0.499,-0.4965,-0.4962,-0.4919,-0.4918,-0.4917,-0.4887,-0.4887,-0.4887,-0.4887,-0.4814,-0.4811,-0.4808,-0.4785,0,0,-0.4798,-0.4797,0,0,0,0,0,0,0,0,-0.5045,-0.5037,-0.497,-0.4967,-0.4963,-0.4912,-0.4929,-0.4873,-0.4887,-0.4915,-0.4887,-0.4887,-0.4845,-0.484,-0.4826,-0.4781,-0.4778,-0.4798,-0.4796,-0.4795,-0.4794,0,0,0,0,0,0,0,-0.5049,-0.504,-0.4962,-0.4969,-0.4965,-0.4956,-0.4949,-0.4918,-0.488,-0.4913,-0.491,-0.4902,-0.4844,-0.4829,-0.4824,-0.4777,-0.4798,-0.4795,-0.4793,-0.4792,-0.4709,-0.4708,0,0,0,0,0,0,-0.5057,-0.5044,-0.4964,-0.496,-0.5005,-0.4954,-0.4946,-0.4928,-0.488,-0.4873,-0.4902,-0.4901,-0.4834,-0.4828,-0.4821,-0.479,-0.4795,-0.4792,-0.479,-0.4709,-0.4708,-0.4708,0,0,0,0,0,0,-0.5059,-0.505,-0.4967,-0.5001,-0.499,-0.4952,-0.4933,-0.4927,-0.4912,-0.4872,-0.4865,-0.4894,-0.4834,-0.4825,-0.4794,-0.4787,-0.479,-0.4787,-0.4709,-0.4709,-0.4708,-0.4728,0,0,0,0,0,0,-0.5063,-0.5051,-0.5043,-0.5001,-0.4988,-0.4942,-0.4933,-0.4925,-0.4907,-0.4905,-0.4863,-0.4856,-0.4834,-0.4799,-0.4791,-0.4783,-0.4785,-0.471,-0.4709,-0.4708,-0.4728,-0.4728,-0.4729,0,0,0,0,0,-0.5067,-0.5051,-0.5042,-0.5033,-0.4977,-0.4942,-0.4934,-0.4909,-0.4906,-0.4897,-0.4871,-0.4858,-0.4789,-0.4796,-0.4786,-0.4777,-0.471,-0.4709,-0.4708,-0.4728,-0.4728,-0.4729,0,0,0,0,0,0,-0.5092,-0.5045,-0.5035,-0.5006,-0.4978,-0.4936,-0.4924,-0.491,-0.4882,-0.4881,-0.485,-0.4841,-0.4812,-0.4791,-0.48,-0.4752,-0.4748,-0.4746,-0.4766,-0.4766,-0.4767,-0.4772,-0.4782,0,0,0,0,0,-0.5095,-0.5071,-0.503,-0.5009,-0.4995,-0.4962,-0.4946,-0.4928,-0.4898,-0.4886,-0.4858,-0.4829,-0.48,-0.4782,-0.4754,-0.4725,-0.4715,-0.4714,-0.4715,-0.4715,-0.4713,-0.4695,-0.4694,-0.4706,-0.4706,-0.4706,0,0,-0.5099,-0.5071,-0.5057,-0.5013,-0.4989,-0.4964,-0.4952,-0.4926,-0.4907,-0.4882,-0.485,-0.4829,-0.4794,-0.4763,-0.4748,-0.4745,-0.4707,-0.4714,-0.4715,-0.4712,-0.4694,-0.4693,-0.4692,-0.4705,-0.4705,-0.4705,0,0,-0.5095,-0.5071,-0.505,-0.5026,-0.499,-0.4968,-0.4963,-0.4923,-0.4908,-0.4876,-0.4856,-0.4832,-0.4785,-0.476,-0.4742,-0.4727,-0.4712,-0.4718,-0.472,-0.4703,-0.4702,-0.4701,-0.4695,-0.4693,-0.4716,-0.4717,-0.4717,0,-0.5105,-0.5067,-0.504,-0.5015,-0.4996,-0.4972,-0.4949,-0.4928,-0.4884,-0.4871,-0.4869,-0.4808,-0.4783,-0.4745,-0.4741,-0.4728,-0.472,-0.4723,-0.4704,-0.4703,-0.4702,-0.4695,-0.4693,-0.4717,-0.4717,-0.4717,-0.4717,0,-0.508,-0.5054,-0.5041,-0.5,-0.4979,-0.4955,-0.4924,-0.4906,-0.4891,-0.4869,-0.4835,-0.4804,-0.4769,-0.4759,-0.4744,-0.4719,-0.4718,-0.4711,-0.4706,-0.4702,-0.4695,-0.4693,-0.4719,-0.4718,-0.4718,-0.4718,0,0,-0.509,-0.5034,-0.503,-0.501,-0.4969,-0.4947,-0.4922,-0.4888,-0.4872,-0.4843,-0.4821,-0.4781,-0.4773,-0.4752,-0.4733,-0.4718,-0.4707,-0.4712,-0.4711,-0.4711,-0.4676,-0.4682,-0.468,-0.4698,-0.4697,-0.4697,-0.4679,0,-0.5079,-0.5033,-0.5008,-0.4973,-0.4947,-0.4924,-0.4901,-0.4873,-0.4852,-0.4827,-0.4803,-0.4774,-0.4767,-0.4754,-0.4738,-0.4712,-0.4699,-0.4713,-0.4675,-0.4674,-0.4684,-0.4676,-0.4682,-0.4667,-0.4676,-0.4676,-0.4676,0,-0.506,-0.5031,-0.4993,-0.4953,-0.4942,-0.4922,-0.4888,-0.4865,-0.4832,-0.4817,-0.4793,-0.4775,-0.4746,-0.4745,-0.4704,-0.4714,-0.4697,-0.4682,-0.468,-0.4675,-0.4674,-0.467,-0.4662,-0.4659,-0.4671,-0.4672,-0.4672,0,-0.507,-0.5022,-0.4992,-0.4976,-0.4929,-0.4916,-0.4896,-0.4863,-0.4844,-0.4814,-0.48,-0.4768,-0.4749,-0.4724,-0.4697,-0.4698,-0.4659,-0.4655,-0.4645,-0.4645,-0.4637,-0.4638,-0.4625,-0.4628,-0.4628,-0.4628,-0.4628,0,-0.506,-0.5037,-0.4996,-0.4978,-0.4951,-0.4922,-0.4896,-0.4874,-0.4845,-0.4821,-0.4799,-0.4778,-0.4743,-0.4717,-0.4695,-0.4665,-0.4657,-0.4643,-0.4638,-0.4645,-0.4646,-0.4633,-0.4633,-0.4627,-0.4627,-0.4627,-0.4628,0,-0.5066,-0.5038,-0.5004,-0.4962,-0.4951,-0.4933,-0.4897,-0.4878,-0.4855,-0.4825,-0.4817,-0.4781,-0.4749,-0.4719,-0.4676,-0.4662,-0.463,-0.4624,-0.4642,-0.4638,-0.4629,-0.463,-0.4607,-0.4602,-0.4609,-0.4609,-0.4609,0,-0.5062,-0.5043,-0.4999,-0.4982,-0.4962,-0.4935,-0.4914,-0.4885,-0.4865,-0.4825,-0.4811,-0.4777,-0.4748,-0.4698,-0.4667,-0.4634,-0.4626,-0.462,-0.4621,-0.4628,-0.4625,-0.4626,-0.4623,-0.462,-0.462,-0.4621,-0.4621,0,-0.5055,-0.5042,-0.5014,-0.498,-0.4957,-0.4929,-0.4901,-0.4888,-0.4853,-0.4831,-0.4798,-0.4776,-0.4732,-0.4698,-0.4661,-0.464,-0.4624,-0.4621,-0.4616,-0.4623,-0.4633,-0.4626,-0.4642,-0.4621,-0.4621,-0.4621,-0.4621,-0.4621,-0.5055,-0.5037,-0.5003,-0.4972,-0.4948,-0.4922,-0.4901,-0.4876,-0.4848,-0.4809,-0.4794,-0.476,-0.4726,-0.4675,-0.4654,-0.4626,-0.4623,-0.4617,-0.4615,-0.4614,-0.4615,-0.4639,-0.4619,-0.4619,-0.4619,-0.4619,-0.4619,0,-0.5047,-0.5024,-0.4996,-0.4956,-0.4932,-0.4919,-0.4887,-0.4867,-0.4837,-0.4807,-0.4779,-0.4741,-0.4708,-0.4675,-0.464,-0.4624,-0.4616,-0.4615,-0.4616,-0.4611,-0.462,-0.4627,-0.4623,-0.4623,-0.4623,-0.4623,-0.4623,-0.4623,-0.504,-0.5009,-0.4991,-0.4947,-0.4924,-0.489,-0.4873,-0.4848,-0.4823,-0.4781,-0.4754,-0.4732,-0.4701,-0.4663,-0.4632,-0.4623,-0.4611,-0.4612,-0.4601,-0.461,-0.461,-0.461,-0.4616,-0.461,-0.461,-0.4594,-0.4594,-0.4594]},{"header":{"parameterUnit":"m.s-1","parameterCategory":1,"la1":30.2991,"la2":30.254,"lo1":-89.0895,"lo2":-89.0444,"dy":0.0017,"dx":0.0017,"nx":28,"ny":28,"refTime":"2025-12-27T09:00:00:Z","depth":0,"parameterNumber":3,"parameterNumberName":"V-component_of_WINDS"},"data":[0,0,0,0,0,0,0,0,0,0,0,0,0,0,0,0,0,0,0,0,0,0,0,0,0,0,0,0,0,0,0,0,0,0,0,0,0,0,0,0,0,0,0,0,0,0,0,0,0,0,0,0,0,0,0,0,0,0,2.7692,2.7693,0,2.7743,2.7744,2.7744,2.7739,2.7738,2.7738,2.7737,2.7786,2.7788,2.779,0,0,0,0,0,0,0,0,0,0,0,0,0,2.7588,2.759,2.7692,2.7693,2.7693,2.7743,2.7744,2.7744,2.7739,2.7738,2.7737,2.7737,2.7786,2.7788,2.7791,0,0,0,0,0,0,0,0,0,0,0,0,0,2.7635,2.7591,2.7692,2.7697,2.7698,2.7743,2.7744,2.7745,2.774,2.7738,2.7737,2.7736,2.7785,2.7788,2.7791,2.7833,0,0,2.78,2.7802,0,0,0,0,0,0,0,0,2.7633,2.7639,2.7696,2.7697,2.7698,2.7734,2.7725,2.7774,2.774,2.7724,2.7737,2.7736,2.777,2.7774,2.7786,2.7836,2.7838,2.7801,2.7802,2.7804,2.7805,0,0,0,0,0,0,0,2.763,2.7637,2.7712,2.7696,2.7698,2.7696,2.7701,2.7734,2.7753,2.7725,2.7725,2.7731,2.777,2.7783,2.7787,2.7839,2.7801,2.7803,2.7805,2.7806,2.7926,2.7928,0,0,0,0,0,0,2.7625,2.7634,2.7711,2.7714,2.7662,2.7699,2.7705,2.7723,2.7752,2.7756,2.7732,2.7731,2.7778,2.7783,2.7789,2.7841,2.7804,2.7807,2.7808,2.7925,2.7927,2.7928,0,0,0,0,0,0,2.7623,2.7632,2.7709,2.7674,2.7684,2.7702,2.7723,2.7725,2.7738,2.7758,2.776,2.7742,2.7778,2.7784,2.7823,2.7843,2.7808,2.7811,2.7923,2.7925,2.7927,2.7946,0,0,0,0,0,0,2.762,2.7632,2.7649,2.7675,2.7686,2.7743,2.7724,2.7727,2.7744,2.7742,2.7768,2.7771,2.7777,2.7818,2.7826,2.7847,2.7813,2.7922,2.7924,2.7927,2.7944,2.7949,2.7953,0,0,0,0,0,2.7617,2.7651,2.7649,2.7659,2.7707,2.7744,2.775,2.7757,2.7745,2.7762,2.7775,2.777,2.7839,2.7822,2.7831,2.7853,2.792,2.7924,2.7926,2.7942,2.7948,2.7952,0,0,0,0,0,0,2.7626,2.7655,2.7653,2.7697,2.7718,2.7743,2.7765,2.7763,2.7787,2.7785,2.7792,2.7798,2.7837,2.7848,2.7829,2.7895,2.7878,2.7883,2.7887,2.7892,2.7897,2.7894,2.7816,0,0,0,0,0,2.7634,2.7662,2.7684,2.7721,2.7732,2.7746,2.7762,2.7766,2.7788,2.7797,2.7812,2.7832,2.7859,2.7876,2.7901,2.7945,2.7951,2.7964,2.7968,2.7972,2.7976,2.8001,2.8007,2.7938,2.7938,2.7938,0,0,2.7649,2.7668,2.7685,2.7724,2.774,2.7769,2.7754,2.7784,2.7805,2.7801,2.7839,2.785,2.7874,2.7915,2.7934,2.7926,2.7997,2.7976,2.7978,2.7981,2.8005,2.8011,2.8017,2.794,2.794,2.7939,0,0,2.7692,2.7709,2.7742,2.7759,2.7785,2.7794,2.7802,2.7827,2.7835,2.7873,2.787,2.7895,2.794,2.7957,2.7971,2.802,2.8017,2.8028,2.8051,2.8075,2.8081,2.8085,2.8104,2.811,2.8032,2.8032,2.8032,0,2.7708,2.7751,2.7759,2.779,2.7807,2.7805,2.7838,2.7854,2.7886,2.7898,2.7888,2.7945,2.796,2.8006,2.8018,2.803,2.8039,2.8026,2.8079,2.8084,2.8089,2.8107,2.8113,2.8033,2.8033,2.8033,2.8033,0,2.777,2.78,2.7823,2.7856,2.7875,2.7907,2.7919,2.7937,2.7939,2.7949,2.7988,2.8006,2.8035,2.8046,2.8048,2.8092,2.8086,2.8078,2.8061,2.8097,2.8113,2.812,2.8035,2.8035,2.8034,2.8034,0,0,2.7821,2.7858,2.7866,2.7881,2.7909,2.7932,2.7964,2.7993,2.8009,2.8031,2.8058,2.8096,2.8089,2.8105,2.8108,2.8129,2.8168,2.8118,2.8119,2.8128,2.8218,2.8225,2.8233,2.8165,2.8166,2.8167,2.8217,0,2.7868,2.7926,2.7933,2.7983,2.8011,2.8009,2.8037,2.8056,2.8066,2.8091,2.8101,2.8129,2.8116,2.8126,2.8147,2.8159,2.8186,2.8155,2.819,2.8191,2.8186,2.8242,2.8249,2.8295,2.8223,2.8224,2.8225,0,2.7931,2.7956,2.801,2.8034,2.8046,2.8071,2.8099,2.8122,2.8144,2.815,2.8168,2.8169,2.8201,2.8181,2.8225,2.8204,2.8218,2.8226,2.8228,2.8233,2.8211,2.8249,2.831,2.8317,2.8235,2.8234,2.8233,0,2.7965,2.8011,2.805,2.8062,2.8092,2.8109,2.8122,2.8143,2.816,2.8184,2.8195,2.8221,2.8236,2.8256,2.8264,2.8249,2.8308,2.8289,2.8314,2.8313,2.8327,2.8327,2.8393,2.8334,2.8334,2.8334,2.8334,0,2.8017,2.805,2.8066,2.809,2.8126,2.8134,2.817,2.8181,2.82,2.8225,2.8224,2.8248,2.8256,2.8281,2.8286,2.8322,2.8328,2.8334,2.8335,2.8335,2.8334,2.8345,2.8343,2.8336,2.8335,2.8335,2.8335,0,2.8062,2.8074,2.8116,2.814,2.8147,2.8173,2.8193,2.8216,2.8225,2.8257,2.8265,2.828,2.8309,2.8318,2.8353,2.8356,2.8399,2.8397,2.8392,2.8393,2.8417,2.8415,2.8494,2.8505,2.8438,2.8438,2.8439,0,2.8096,2.8122,2.8149,2.8166,2.818,2.8208,2.8226,2.8233,2.8252,2.8279,2.8298,2.8327,2.8351,2.8397,2.841,2.8437,2.8436,2.8462,2.844,2.8439,2.8438,2.8437,2.844,2.8466,2.8467,2.8467,2.8468,0,2.8155,2.8159,2.8185,2.8214,2.8236,2.8258,2.828,2.8294,2.8304,2.8325,2.8355,2.8373,2.8409,2.8438,2.8465,2.8477,2.8475,2.8474,2.8482,2.8482,2.8479,2.8482,2.8405,2.8473,2.8472,2.8472,2.8472,2.8472,2.8196,2.8219,2.8242,2.8271,2.8288,2.8309,2.8331,2.8343,2.8369,2.84,2.8402,2.8435,2.8455,2.8492,2.8505,2.853,2.8523,2.8533,2.8536,2.8539,2.8541,2.8474,2.8535,2.8535,2.8535,2.8534,2.8534,0,2.8256,2.827,2.8297,2.8328,2.8351,2.8347,2.837,2.8389,2.8419,2.8439,2.8462,2.8497,2.8525,2.854,2.8567,2.8585,2.8584,2.8592,2.8591,2.8594,2.8546,2.8537,2.8592,2.8592,2.8592,2.8592,2.8592,2.8592,2.829,2.8329,2.8336,2.8383,2.8397,2.843,2.8444,2.8462,2.8478,2.8517,2.8541,2.8551,2.8568,2.8597,2.8622,2.8626,2.8636,2.8645,2.8648,2.8603,2.8597,2.8592,2.8584,2.8647,2.8647,2.8694,2.8695,2.8695]}]]